Simultaneous Nadir Overpasses (SNOs) Predictions

Prediction of SNOs between AQUA and NOAA-19 Satellite Orbit:

Table of predicted SNOs for the next 14.0 days since TLE Epoch: 11/30/2024
Index Date (AQUA) Time (AQUA) Lat,Lon (AQUA) SZA (AQUA ) Date (NOAA-19) Time (NOAA-19) Lat,Lon (NOAA-19) SZA (NOAA-19 ) Distance(km) Time Diff (sec)
1 12/01/2024 02:27:47 -75.61, -35.69 82.59 12/01/2024 02:27:06 -75.61, -35.69 82.58 0.73 41
2 12/01/2024 03:17:09 75.69, 131.74 97.50 12/01/2024 03:18:08 75.66, 131.70 97.48 3.17 59
3 12/03/2024 05:26:12 -75.60, -80.23 82.29 12/03/2024 05:25:39 -75.62, -80.26 82.27 2.48 33
4 12/03/2024 06:15:34 75.68, 87.19 97.80 12/03/2024 06:16:40 75.71, 87.27 97.83 3.27 66
5 12/05/2024 08:24:36 -75.64,-124.89 81.98 12/05/2024 08:24:12 -75.61,-124.86 82.00 2.83 24
6 12/05/2024 09:13:59 75.78, 42.36 98.16 12/05/2024 09:15:11 75.78, 42.94 98.18 15.76 72
7 12/07/2024 11:22:57 -75.63,-169.40 81.75 12/07/2024 11:22:44 -75.64,-169.36 81.73 1.95 13
8 12/07/2024 12:12:29 76.20, -3.53 98.82 12/07/2024 12:13:33 76.24, 0.02 98.92 94.14 64
9 12/09/2024 14:21:17 -75.66, 145.96 81.50 12/09/2024 14:21:16 -75.66, 146.10 81.51 4.03 1
10 12/11/2024 16:30:10 75.41, -65.50 98.43 12/11/2024 16:29:00 75.32, -66.86 98.32 39.67 70
11 12/11/2024 17:19:34 -75.65, 101.48 81.35 12/11/2024 17:19:48 -75.66, 101.52 81.33 1.56 14
12 12/13/2024 19:28:29 75.59,-110.53 98.74 12/13/2024 19:27:25 75.61,-110.49 98.76 2.52 64



Historial Predications of SNOs between AQUA and NOAA-19
